Погода в Находке

Россия / Приморский край     42°49′26″N   132°53′34″E
темп.,
°C
ветер,
м/с
пор.,
м/с
влажн.,
%
обл.,
%
осадки,
мм/ч
давл.,
гПа
погр.,
м
26 января, вт
вт2601:00−2в698333 0.0 1027378
04:00−2в688067 0.0 1026385
07:00−2в6880100 0.0 1024341
10:00−1в71184100 0.1 1022461
13:000в71184100 0.1 1019475
16:00+1в6985100 0.1 1016374
19:00+1в6890100 0.0 1014208
22:000св3598100 3.6 1013176
27 января, ср
ср2701:000сз6989100 1.6 1013354
04:00−3сз8147157 1.6 1016691
07:00−5сз811760 0.0 1018722
10:00−6сз813640 0.0 1021901
13:00−5сз913520 0.0 10221187
16:00−5зсз912490 0.0 10221439
19:00−7сз57560 0.0 1023840
22:00−8с59600 0.0 1024587
28 января, чт
чт2801:00−11ссв22620 0.0 1024192
04:00−11ссв226439 0.0 1024138
07:00−10св3361100 0.0 1021190
10:00−9св3459100 0.0 1020238
13:00−6в81281100 0.1 1014796
16:00−5в111688100 1.6 1007932
19:00−4в152191100 4.3 10021305
22:00−4всв152386100 10.8 9991389
29 января, пт
пт2901:00−7ссв91590100 2.0 9961099
04:00−10с131982100 2.6 9961204
07:00−12ссз162481100 0.8 9991107
10:00−14ссз142381100 1.6 1005929
13:00−15ссз142279100 0.1 10081011
16:00−14ссз132273100 0.1 10101137
19:00−16ссз12207785 0.0 10151135
22:00−17ссз13207559 0.0 10171043
30 января, сб
сб3001:00−18ссз1118830 0.0 1019894
04:00−19ссз815820 0.0 1022710
07:00−20ссз712810 0.0 1024523
10:00−20с47760 0.0 1025314
13:00−16сз45700 0.0 1024352
16:00−10з466232 0.0 1022627
19:00−11зсз3479100 0.0 1023428
22:00−11с3383100 0.0 1022161